Regional Weather Roundup
Issued by NWS Sterling, VA

Home | Current Version | Previous Version | Graphics & Text | Print | Product List | Glossary On
Versions: 1 2 3 4 5 6 7 8 9 10 11 12 13 14 15 16 17 18 19 20 21 22 23 24 25 26 27 28 29 30 31 32 33 34 35 36 37 38 39 40 41 42 43 44 45 46 47 48 49 50
000
ASUS41 KLWX 292210
RWRLWX

REGIONAL WEATHER ROUNDUP
NATIONAL WEATHER SERVICE BALTIMORE MD/WASHINGTON DC
600 PM EDT SUN MAR 29 2015

Note: "FAIR" indicates few or no clouds below 12,000 feet
with no significant weather and/or obstructions to visibility.
 TC=TEMPERATURE CELSIUS

 * =Non NWS site. Station does not report precipitation (e.g. rain,
    snow, etc.), thunder, or fog.

DCZ001-MDZ009-015-VAZ040>042-051-053>054-292300-
WASHINGTON METRO

CITY           SKY/WX    TMP DP  RH WIND       PRES   REMARKS
WASHINGTON NAT MOSUNNY   49   5  16 W8        30.25F
DULLES         MOSUNNY   45   2  17 CALM      30.23F
ANDREWS AFB    SUNNY     44   5  20 VRB2      30.23F
FT BELVOIR     SUNNY     47   2  16 VRB6      30.24F
QUANTICO       SUNNY     46  17  31 S8        30.27F
COLLEGE PARK*  SUNNY     45   3  18 S5        30.24F
LEESBURG*      SUNNY     46  12  25 MISG      30.22F
MANASSAS*      SUNNY     46   3  17 CALM      30.24F
GAITHERSBURG*  SUNNY     43   7  22 CALM      30.25F

$$

MDZ006>007-011-014-292300-
BALTIMORE METRO

CITY           SKY/WX    TMP DP  RH WIND       PRES   REMARKS
BWI AIRPORT    MOSUNNY   45   7  21 W8        30.23F
MARTIN STATE   SUNNY     46  10  23 SW3       30.25F
ANNAPOLIS      SUNNY     42  20  41 E7        30.25F

$$

MDZ012-015-019>023-292300-
MARYLAND EASTERN SHORE

CITY           SKY/WX    TMP DP  RH WIND       PRES   REMARKS
OCEAN CITY     SUNNY     38  21  50 SE7       30.27R
SALISBURY      SUNNY     42   7  23 W9        30.27S
BAY BRIDGE AP*   N/A     43   9  24 W5        30.26F
CAMBRIDGE*     SUNNY     43   9  24 NW7       30.27S
EASTON*        SUNNY     45  16  31 SW6       30.30S

$$

MDZ017>025-292300-
SOUTHERN MARYLAND

CITY           SKY/WX    TMP DP  RH WIND       PRES   REMARKS
PATUXENT RIVER MOSUNNY   41  18  39 SE6       30.27S
ST INIGOES       N/A     43   7  22 W10       30.27S
LEONARDTOWN*   SUNNY     43   5  21 W5        30.28S

$$

MDZ003>005-292300-
NORTH CENTRAL MARYLAND

CITY           SKY/WX    TMP DP  RH WIND       PRES   REMARKS
FREDERICK*     SUNNY     46  -8  10 S8        30.24F
HAGERSTOWN APT SUNNY     45   3  17 S7        30.17F
WESTMINSTER*   SUNNY     43  -4  14 S7        30.19F

$$

MDZ501>502-292300-
WESTERN MARYLAND

CITY           SKY/WX    TMP DP  RH WIND       PRES   REMARKS
OAKLAND*       SUNNY     36   9  32 SW7G17    30.08F
CUMBERLAND*    SUNNY     48   7  18 S10       30.16F

$$

VAZ025>031-292300-
SHENANDOAH VALLEY

CITY           SKY/WX    TMP DP  RH WIND       PRES   REMARKS
WINCHESTER*    SUNNY     48 -17   6 S8        30.17F
FRONT ROYAL*   FAIR      46   5  18 S5        30.17F
LURAY*         FAIR      50  12  22 SW8       30.18F
NEW MARKET*    FAIR      47  12  24 SW9       30.17F
STAUNTON*      SUNNY     49   3  15 S9        30.19F
WAYNESBORO*    FAIR      47   4  17 SE10      30.17F

$$

WVZ021-048>050-054>055-292300-
EASTERN WEST VIRGINIA PANHANDLE

CITY           SKY/WX    TMP DP  RH WIND       PRES   REMARKS
MARTINSBURG    SUNNY     48   6  18 SE8       30.17F
PETERSBURG*    MOSUNNY   51  -5   9 SW7       30.13F

$$

VAZ036>039-050-292300-
CENTRAL FOOTHILLS

CITY           SKY/WX    TMP DP  RH WIND       PRES   REMARKS
CHARLOTTESVILL SUNNY     48   3  15 S12G18    30.21F
CULPEPER*      SUNNY     48   7  18 SW6       30.24F
ORANGE*        SUNNY     50   5  16 S8        30.25F
GORDONSVILLE*  FAIR      48   6  18 SW10      30.22F
WARRENTON*     FAIR      48  19  31 SW7       30.23F

$$

VAZ055>057-292300-
NORTH AND CENTRAL PIEDMONT

CITY           SKY/WX    TMP DP  RH WIND       PRES   REMARKS
FREDERICKSBRG* SUNNY     48   6  17 CALM      30.25F
STAFFORD*      SUNNY     47  -2  13 W7        30.29F

$$

NCZ024-NYZ072-PAZ021-071-VAZ022-071-292300-
OTHER REGIONAL OBSERVATIONS

CITY           SKY/WX    TMP DP  RH WIND       PRES   REMARKS
NEW YORK CITY  SUNNY     46   3  17 NW5       30.18S
PHILADELPHIA   SUNNY     45   8  22 SW12      30.22S
PITTSBURGH     CLOUDY    45   4  18 SW14G22   30.07F
ROANOKE        SUNNY     50   7  17 SE15      30.21F
RICHMOND       PTSUNNY   49   3  15 W5        30.27F
RALEIGH        MOSUNNY   51  11  20 SW7       30.31S

$$

ANZ530>537-292300-
MARINE OBSERVATIONS

STATION/POSITION TIME  TEMP    WIND        PRES
                       AIR SEA DIR/SP/G
                 (UTC) (F)     (DEG/KT/KT) (MB)
THOMAS PT LIGHT  2200                        N/A
BALT KEY BRIDGE  2100   43     230/  6/  8 1024.3F
COVE POINT       2100   36     160/  8/  9 1024.9F
LEWISETTA        2100   40 43              1025.2F
SOLOMONS ISLAND  2100      44                N/A
PINEY POINT      2112          350/  6/  6   N/A

$$




USA.gov is the U.S. government's official web portal to all federal, state and local government web resources and services.